[[{"header":{"parameterUnit":"m.s-1","parameterCategory":1,"la1":30.2991,"la2":30.254,"lo1":-89.0895,"lo2":-89.0444,"dy":0.0017,"dx":0.0017,"nx":28,"ny":28,"refTime":"2024-07-31T09:00:00:Z","depth":0,"parameterNumber":2,"parameterNumberName":"U-component_of_WINDS"},"data":[0,0,0,0,0,0,0,0,0,0,0,0,0,0,0,0,0,0,0,0,0,0,0,0,0,0,0,0,0,0,0,0,0,0,0,0,0,0,0,0,0,0,0,0,0,0,0,0,0,0,0,0,0,0,0,0,0,0,1.9874,1.9875,0,1.9959,1.996,1.9961,1.9957,1.9956,1.9954,1.9953,2.004,2.0043,2.0047,0,0,0,0,0,0,0,0,0,0,0,0,0,1.9706,1.9709,1.9874,1.9875,1.9876,1.9959,1.996,1.9961,1.9957,1.9956,1.9954,1.9953,2.0039,2.0043,2.0047,0,0,0,0,0,0,0,0,0,0,0,0,0,1.9784,1.971,1.9874,1.9884,1.9886,1.9958,1.996,1.9961,1.9957,1.9956,1.9954,1.9952,2.0037,2.0042,2.0048,2.0115,0,0,2.0063,2.0065,0,0,0,0,0,0,0,0,1.9779,1.979,1.9881,1.9883,1.9885,1.9945,1.9932,2.0013,1.9958,1.993,1.9953,1.9951,2.001,2.0017,2.0037,2.0119,2.0123,2.0064,2.0067,2.0069,2.007,0,0,0,0,0,0,0,1.9774,1.9786,1.9907,1.9883,1.9885,1.9884,1.9893,1.9948,1.9979,1.9932,1.9932,1.9942,2.0011,2.0032,2.0039,2.0124,2.0064,2.0068,2.0071,2.0073,2.0263,2.0265,0,0,0,0,0,0,1.9766,1.9782,1.9905,1.991,1.9827,1.9888,1.9898,1.9928,1.9978,1.9984,1.9944,1.9942,2.0024,2.0033,2.0042,2.0122,2.0069,2.0074,2.0077,2.0261,2.0264,2.0266,0,0,0,0,0,0,1.9763,1.9777,1.9901,1.9846,1.9861,1.9893,1.9926,1.9931,1.9952,1.9987,1.9993,1.996,2.0023,2.0035,2.0096,2.0125,2.0076,2.0081,2.0259,2.0262,2.0265,2.0285,0,0,0,0,0,0,1.9758,1.9776,1.9803,1.9846,1.9864,1.9955,1.9928,1.9934,1.9961,1.9959,2.0004,2.001,2.0023,2.0089,2.0102,2.0132,2.0085,2.0257,2.026,2.0264,2.0282,2.0288,2.0294,0,0,0,0,0,1.9752,1.9806,1.9804,1.9819,1.9899,1.9957,1.9967,1.9981,1.9963,1.999,2.0012,2.0008,2.0121,2.0095,2.0109,2.0142,2.0255,2.0259,2.0264,2.0279,2.0287,2.0294,0,0,0,0,0,0,1.9766,1.9812,1.9811,1.988,1.9915,1.9956,1.999,1.9989,2.0029,2.0026,2.0041,2.0052,2.0113,2.0134,2.0104,2.0208,2.0185,2.0193,2.0192,2.02,2.0206,2.0199,2.0089,0,0,0,0,0,1.9777,1.982,1.9858,1.9916,1.9933,1.9959,1.9985,1.9992,2.0028,2.0043,2.0069,2.0104,2.0147,2.0175,2.0217,2.0285,2.0294,2.0314,2.032,2.0325,2.0331,2.0366,2.0375,2.028,2.028,2.028,0,0,1.98,1.9831,1.9858,1.992,1.9947,1.9991,1.9971,2.0019,2.0051,2.005,2.0109,2.013,2.0169,2.0234,2.0264,2.0253,2.0359,2.0331,2.0334,2.0337,2.0371,2.038,2.0388,2.0283,2.0283,2.0282,0,0,1.9864,1.9893,1.9943,1.997,2.0012,2.0028,2.004,2.0081,2.0094,2.0154,2.0153,2.0191,2.0266,2.0293,2.0317,2.0389,2.0386,2.0402,2.0433,2.0467,2.0474,2.0481,2.0504,2.0513,2.0408,2.0408,2.0408,0,1.9888,1.9955,1.9969,2.0016,2.0042,2.0043,2.0092,2.0118,2.0171,2.0189,2.0176,2.0267,2.0294,2.0364,2.0381,2.0401,2.0414,2.0396,2.0472,2.0479,2.0485,2.0507,2.0516,2.041,2.0409,2.0409,2.0409,0,1.998,2.0026,2.0061,2.0111,2.0142,2.019,2.021,2.0239,2.0244,2.0261,2.032,2.0352,2.0399,2.0416,2.0422,2.0486,2.0478,2.0469,2.0445,2.0495,2.0516,2.0525,2.0412,2.0411,2.0411,2.041,0,0,2.0056,2.0112,2.0124,2.0146,2.019,2.0226,2.0273,2.0318,2.0342,2.0378,2.0417,2.0478,2.0469,2.0496,2.0504,2.0535,2.0586,2.0521,2.0522,2.053,2.0656,2.0661,2.0671,2.0585,2.0587,2.0588,2.0652,0,2.0123,2.0207,2.022,2.0294,2.0335,2.0335,2.0376,2.0407,2.0424,2.0461,2.0479,2.0522,2.0508,2.0523,2.0553,2.0574,2.0611,2.057,2.062,2.0621,2.0608,2.0683,2.0689,2.0748,2.0661,2.0662,2.0663,0,2.0213,2.025,2.0328,2.0364,2.0382,2.0419,2.046,2.0496,2.053,2.054,2.0569,2.0573,2.062,2.0596,2.066,2.0632,2.0653,2.0666,2.0668,2.0672,2.0644,2.0687,2.0767,2.0775,2.0677,2.0676,2.0675,0,2.0257,2.0327,2.0382,2.0401,2.0445,2.0471,2.049,2.0523,2.0549,2.0585,2.0601,2.0642,2.0664,2.0696,2.071,2.0691,2.0773,2.075,2.0781,2.078,2.0797,2.0796,2.088,2.0814,2.0814,2.0814,2.0813,0,2.033,2.0377,2.0402,2.0435,2.0487,2.0501,2.0552,2.0571,2.0599,2.0635,2.0639,2.0672,2.069,2.0726,2.0738,2.0788,2.0799,2.0807,2.0809,2.0806,2.0804,2.0819,2.0814,2.0816,2.0815,2.0815,2.0815,0,2.0388,2.0407,2.0466,2.0503,2.0513,2.055,2.0581,2.0612,2.0628,2.0674,2.0685,2.071,2.0752,2.077,2.0823,2.083,2.0887,2.0887,2.0875,2.0875,2.0904,2.09,2.1,2.1012,2.0939,2.094,2.0941,0,2.0432,2.0468,2.0508,2.0533,2.0553,2.0592,2.0618,2.0633,2.0659,2.0699,2.0726,2.0768,2.0802,2.0869,2.0892,2.0931,2.0931,2.0963,2.0937,2.0931,2.0929,2.0926,2.0928,2.0967,2.0968,2.0969,2.0969,0,2.0508,2.0515,2.0552,2.0592,2.0622,2.0654,2.0685,2.0705,2.0724,2.0753,2.0796,2.0823,2.0875,2.0916,2.0956,2.0975,2.0975,2.0977,2.0986,2.0982,2.0972,2.0976,2.0886,2.0975,2.0974,2.0974,2.0973,2.0973,2.0559,2.059,2.0622,2.0662,2.0687,2.0716,2.0746,2.0766,2.0802,2.0845,2.0852,2.0897,2.0928,2.0982,2.1003,2.1038,2.1029,2.1043,2.1046,2.1048,2.1049,2.0968,2.1045,2.1045,2.1045,2.1045,2.1045,0,2.0633,2.0653,2.069,2.0733,2.0764,2.0761,2.0795,2.0821,2.086,2.089,2.0923,2.0971,2.101,2.1035,2.1074,2.1097,2.1098,2.1107,2.1104,2.1108,2.1055,2.1043,2.1106,2.1106,2.1106,2.1106,2.1106,2.1106,2.0675,2.0725,2.0736,2.0798,2.0819,2.0863,2.0882,2.0907,2.0931,2.0984,2.1016,2.1032,2.1059,2.11,2.1135,2.1141,2.1155,2.1164,2.1169,2.1119,2.1113,2.1106,2.1095,2.1167,2.1167,2.1219,2.122,2.122]},{"header":{"parameterUnit":"m.s-1","parameterCategory":1,"la1":30.2991,"la2":30.254,"lo1":-89.0895,"lo2":-89.0444,"dy":0.0017,"dx":0.0017,"nx":28,"ny":28,"refTime":"2024-07-31T09:00:00:Z","depth":0,"parameterNumber":3,"parameterNumberName":"V-component_of_WINDS"},"data":[0,0,0,0,0,0,0,0,0,0,0,0,0,0,0,0,0,0,0,0,0,0,0,0,0,0,0,0,0,0,0,0,0,0,0,0,0,0,0,0,0,0,0,0,0,0,0,0,0,0,0,0,0,0,0,0,0,0,2.9909,2.9909,0,2.9896,2.9896,2.9895,2.9836,2.9835,2.9833,2.9832,2.9817,2.9818,2.9819,0,0,0,0,0,0,0,0,0,0,0,0,0,2.9881,2.9882,2.9909,2.9909,2.9909,2.9896,2.9896,2.9895,2.9836,2.9835,2.9833,2.9831,2.9817,2.9818,2.9819,0,0,0,0,0,0,0,0,0,0,0,0,0,2.9883,2.9883,2.9909,2.9878,2.9875,2.9896,2.9896,2.9895,2.9837,2.9835,2.9833,2.9831,2.9817,2.9818,2.9819,2.9869,0,0,2.9824,2.9824,0,0,0,0,0,0,0,0,2.9883,2.9884,2.9883,2.988,2.9877,2.9865,2.988,2.9887,2.9837,2.9851,2.9832,2.983,2.9835,2.9835,2.9837,2.9869,2.9868,2.9824,2.9824,2.9825,2.9825,0,0,0,0,0,0,0,2.9883,2.9885,2.9904,2.9883,2.9879,2.9864,2.9862,2.9881,2.9855,2.985,2.9845,2.9845,2.9833,2.9836,2.9836,2.9868,2.9824,2.9825,2.9826,2.9826,2.9937,2.9939,0,0,0,0,0,0,2.9888,2.9885,2.9904,2.9903,2.9875,2.9866,2.9864,2.9871,2.9855,2.985,2.9847,2.9842,2.9834,2.9834,2.9835,2.989,2.9825,2.9826,2.9827,2.9934,2.9937,2.9939,0,0,0,0,0,0,2.9887,2.989,2.9905,2.9893,2.9894,2.9869,2.9878,2.9872,2.9874,2.9852,2.9847,2.9854,2.9833,2.9833,2.9861,2.9889,2.9827,2.9828,2.9932,2.9935,2.9938,3.0003,0,0,0,0,0,0,2.9887,2.989,2.991,2.9894,2.9895,2.9931,2.9879,2.9873,2.9877,2.9871,2.9858,2.9854,2.9831,2.9859,2.9862,2.989,2.9829,2.9929,2.9933,2.9937,2.9998,3.0008,3.0016,0,0,0,0,0,2.9886,2.9929,2.9911,2.9914,2.9918,2.9933,2.9933,2.9907,2.988,2.9898,2.9883,2.9854,2.9886,2.9862,2.9865,2.9894,2.9927,2.9932,2.9937,2.9994,3.0006,3.0016,0,0,0,0,0,0,2.9949,2.9926,2.9906,2.9945,2.9942,2.9923,2.9946,2.9921,2.9925,2.9919,2.9886,2.9883,2.9915,2.9907,2.9881,2.994,2.9901,2.9907,2.9944,2.9955,2.9964,2.9964,2.983,0,0,0,0,0,2.9968,2.9982,2.9961,2.9997,2.9997,2.9972,2.9977,2.9957,2.9952,2.995,2.9937,2.9933,2.9941,2.9948,2.9955,2.9996,2.9992,3.0017,3.0027,3.0034,3.0039,3.0058,3.0069,2.9955,2.9955,2.9955,0,0,3.0006,2.9995,3.0006,3.001,3.0004,3.0019,2.9971,2.9989,2.9999,2.9952,2.9977,2.9967,2.996,2.9994,3.0009,2.9989,3.0069,3.004,3.0046,3.0047,3.0064,3.0075,3.0085,2.9958,2.9958,2.9957,0,0,3.0083,3.0077,3.0105,3.0101,3.0093,3.0076,3.0083,3.0068,3.0059,3.0083,3.0048,3.0059,3.0075,3.0071,3.0071,3.0143,3.0116,3.0147,3.0194,3.0213,3.0222,3.023,3.0254,3.0263,3.0152,3.0152,3.0152,0,3.0131,3.0152,3.0123,3.0143,3.0144,3.0102,3.013,3.0127,3.0122,3.0124,3.0102,3.0119,3.0112,3.0143,3.0161,3.0163,3.0168,3.0148,3.0223,3.0231,3.0237,3.026,3.0269,3.0156,3.0155,3.0155,3.0155,0,3.0211,3.0226,3.025,3.0245,3.025,3.0274,3.0247,3.0255,3.0234,3.0218,3.0242,3.0231,3.0234,3.024,3.022,3.0268,3.0256,3.0229,3.019,3.0252,3.0273,3.0281,3.0161,3.016,3.0159,3.0158,0,0,3.0328,3.0306,3.0315,3.0311,3.0299,3.0309,3.033,3.0333,3.0339,3.0337,3.0352,3.0366,3.034,3.034,3.0319,3.0336,3.0392,3.0307,3.0306,3.0322,3.0442,3.0461,3.0472,3.0374,3.0375,3.0377,3.0442,0,3.04,3.0434,3.0408,3.0447,3.0459,3.0418,3.0436,3.043,3.0416,3.0424,3.0408,3.0417,3.0384,3.0383,3.0398,3.0382,3.0415,3.0377,3.0387,3.0387,3.0388,3.0483,3.0503,3.0565,3.045,3.0451,3.0452,0,3.0488,3.0489,3.0529,3.0512,3.0516,3.0532,3.0531,3.054,3.0531,3.0519,3.0518,3.0492,3.051,3.0472,3.0495,3.047,3.0472,3.0464,3.0466,3.0465,3.0423,3.0483,3.0585,3.0594,3.0465,3.0464,3.0463,0,3.0567,3.0578,3.0603,3.0601,3.0582,3.0594,3.0587,3.0576,3.0579,3.0578,3.0578,3.058,3.058,3.0581,3.0555,3.053,3.0581,3.0541,3.0571,3.0571,3.0583,3.0582,3.0685,3.0587,3.0586,3.0586,3.0586,0,3.0649,3.0675,3.0637,3.0653,3.0679,3.0648,3.0675,3.0664,3.0654,3.0665,3.063,3.0642,3.0607,3.0614,3.0594,3.0615,3.0616,3.0606,3.06,3.0609,3.061,3.0609,3.0603,3.0589,3.0588,3.0588,3.0587,0,3.0742,3.0718,3.0742,3.0721,3.0717,3.0737,3.0719,3.0731,3.0715,3.0729,3.0731,3.0704,3.071,3.0685,3.0687,3.0673,3.0704,3.0692,3.0707,3.0703,3.0733,3.073,3.0838,3.085,3.0745,3.0746,3.0747,0,3.0795,3.0814,3.0795,3.0799,3.0794,3.0802,3.0804,3.0774,3.0777,3.0767,3.078,3.0784,3.0785,3.0797,3.0777,3.0778,3.0764,3.0802,3.0764,3.0771,3.0763,3.0761,3.0762,3.081,3.0811,3.0812,3.0813,0,3.0892,3.0878,3.0883,3.0882,3.0885,3.0884,3.088,3.0885,3.0852,3.0857,3.0863,3.0864,3.0865,3.0869,3.0865,3.0856,3.0829,3.0825,3.0832,3.084,3.0847,3.0842,3.0727,3.0823,3.0822,3.0821,3.0821,3.082,3.0965,3.0979,3.0967,3.0972,3.0965,3.0962,3.0972,3.0956,3.096,3.0959,3.094,3.0949,3.0938,3.093,3.0924,3.093,3.0912,3.0922,3.0924,3.0927,3.0931,3.0847,3.0929,3.0929,3.0929,3.0929,3.0928,0,3.1058,3.1048,3.1053,3.1048,3.1051,3.1025,3.1019,3.1023,3.1031,3.1023,3.1025,3.103,3.1033,3.1013,3.1012,3.1021,3.1008,3.1021,3.102,3.1018,3.0948,3.0942,3.1032,3.1032,3.1032,3.1032,3.1032,3.1032,3.1107,3.1128,3.1113,3.113,3.1119,3.1127,3.1126,3.1122,3.1115,3.1122,3.1124,3.1111,3.1098,3.1096,3.1096,3.109,3.1091,3.1109,3.1098,3.1033,3.1023,3.1013,3.1007,3.1109,3.1109,3.1167,3.1167,3.1168]}]]